Location: Newark
(43.4306°N, 0.3089°E)
Time: 16:52:20
(UTC+00:00)

A-11 Canister half - Pass Details

Date: 31 August 2019
Orbit: 1514 x 1686 km, 47.2° (Epoch: 14 September)

Event Time Altitude Azimuth Distance (km) Brightness Sun altitude
Rises 22:53:17 0° 294° (WNW) 4,779 12.1 -36.0°
Reaches altitude 10° 22:56:49 10° 284° (WNW) 3,818 11.4 -36.2°
Enters shadow 23:03:07 28° 245° (WSW) 2,688 10.1 -36.6°
